#timestamp,LO_Frequency,Hit 
1499619615.5,286046979.6,N
1499619635.3,286046977.8,N
1499619655.2,286046977.9,N
1499619675.9,286046980.2,N
1499619695.7,286046979.8,N
1499619715.6,286046980.2,N
1499619735.4,286046977.8,N
1499619755.2,286046978.8,N
1499619775.0,286046978.5,N
1499619776.0,286046978.5,N
1499619795.8,286046978.4,N
1499619815.6,286046978.4,N
1499619835.4,286046976.6,N
1499619855.3,286046977.1,N
1499619875.1,286046976.9,N
1499619895.8,286046976.9,N
1499619915.7,286046976.2,N
1499619935.5,286046974.1,N
1499619955.3,286046977.1,N
1499619975.2,286046976.9,N
1499619995.9,286046976.3,N
1499620015.7,286046976.7,N
1499620035.6,286046976.9,N
1499620055.4,286046977.9,N
1499620075.2,286046978.7,N
1499620095.1,286046978.7,N
1499620096.0,286046978.7,N
1499620115.8,286046976.6,N
1499620135.6,286046976.9,N
1499620155.4,286046978.7,N
1499620175.3,286046976.6,N
1499620195.1,286046978.7,N
1499620215.8,286046976.0,N
1499620235.7,286046975.7,N
1499620255.5,286046976.9,N
1499620275.3,286046974.5,N
1499620295.2,286046974.5,N
1499620315.9,286046977.2,N
1499620335.7,286046977.0,N
1499620355.6,286046976.8,N
1499620375.4,286046974.1,N
1499620395.2,286046974.6,N
1499620415.1,286046975.0,N
1499620416.0,286046975.0,N
1499620435.8,286046974.1,N
1499620455.6,286046977.0,N
1499620475.5,286046974.2,N
1499620495.3,286046974.3,N
1499620515.1,286046975.3,N
1499620535.8,286046974.8,N
1499620555.7,286046975.5,N
1499620575.5,286046975.1,N
1499620595.3,286046973.0,N
1499620615.2,286046974.9,N
1499620635.0,286046974.3,N
1499620635.9,286046974.3,N
1499620655.7,286046974.6,N
1499620675.6,286046976.8,N
1499620695.4,286046974.1,N
1499620715.2,286046976.7,N
1499620735.1,286046974.2,N
1499620736.0,286046974.2,N
1499620755.8,286046974.8,N
1499620775.6,286046975.1,N
1499620795.5,286046974.6,N
1499620815.3,286046974.3,N
1499620835.1,286046974.7,N
1499620855.9,286046974.6,N
1499620875.7,286046977.2,N
1499620895.5,286046972.8,N
1499620915.4,286046972.6,N
1499620935.2,286046975.5,N
1499620955.0,286046975.5,N
1499620955.9,286046975.5,N
1499620975.8,286046975.5,N
1499620995.6,286046975.5,N
1499621015.4,286046975.0,N
1499621035.2,286046975.1,N
1499621055.1,286046974.7,N
1499621056.0,286046974.7,N
1499621075.8,286046975.5,N
1499621095.6,286046975.1,N
1499621115.5,286046975.5,N
1499621135.3,286046975.2,N
1499621155.1,286046972.6,N
1499621175.9,286046972.6,N
1499621195.7,286046974.5,N
1499621215.5,286046974.8,N
1499621235.4,286046975.4,N
1499621255.2,286046975.2,N
1499621275.0,286046975.5,N
1499621275.9,286046975.5,N
1499621295.8,286046973.0,N
1499621315.6,286046975.2,N
1499621335.4,286046972.5,N
1499621355.3,286046972.5,N
1499621375.1,286046975.3,N
1499621376.0,286046975.3,N
1499621395.8,286046975.6,N
1499621415.7,286046975.2,N
1499621435.5,286046974.4,N
1499621455.3,286046977.0,N
1499621475.1,286046977.0,N
1499621495.9,286046977.1,N
1499621515.7,286046975.0,N
1499621535.5,286046974.6,N
1499621555.4,286046974.9,N
1499621575.2,286046972.5,N
1499621595.0,286046976.7,N
1499621595.9,286046976.7,N
1499621615.8,286046977.2,N
1499621635.6,286046974.2,N
1499621655.4,286046975.2,N
1499621675.3,286046975.5,N
1499621695.1,286046975.5,N
1499621696.0,286046975.5,N
1499621715.8,286046975.3,N
1499621735.7,286046975.0,N
1499621755.5,286046972.5,N
1499621775.3,286046975.6,N
1499621795.2,286046975.1,N
1499621815.9,286046972.9,N
1499621835.7,286046975.6,N
1499621855.5,286046974.8,N
1499621875.4,286046974.7,N
1499621895.2,286046975.0,N
1499621915.0,286046974.5,N
1499621915.9,286046974.5,N
1499621935.8,286046977.1,N
1499621955.6,286046975.6,N
1499621975.4,286046975.6,N
1499621995.3,286046975.0,N
1499622015.1,286046974.8,N
1499622035.8,286046974.6,N
1499622055.7,286046972.9,N
1499622075.5,286046974.8,N
1499622095.3,286046974.3,N
1499622115.2,286046975.5,N
1499622135.9,286046973.7,N
1499622155.7,286046974.0,N
1499622175.6,286046970.9,N
1499622195.4,286046973.5,N
1499622215.2,286046973.3,N
1499622235.0,286046971.7,N
1499622236.0,286046971.7,N
1499622255.8,286046975.1,N
1499622275.6,286046972.9,N
1499622295.4,286046973.5,N
1499622315.3,286046973.5,N
1499622335.1,286046973.9,N
1499622355.8,286046972.7,N
1499622375.7,286046972.9,N
1499622395.5,286046974.4,N
1499622415.3,286046974.9,N
1499622435.2,286046973.3,N
1499622455.9,286046974.6,N
1499622475.7,286046974.9,N
1499622495.6,286046974.9,N
1499622515.4,286046974.4,N
1499622535.2,286046974.4,N
1499622555.0,286046974.9,N
1499622556.0,286046974.9,N
1499622575.8,286046974.8,N
1499622595.6,286046974.4,N
1499622615.4,286046975.1,N
1499622635.3,286046975.5,N
1499622655.1,286046972.9,N
1499622675.8,286046974.0,N
1499622695.7,286046971.5,N
1499622715.5,286046971.9,N
1499622735.3,286046973.4,N
1499622755.2,286046971.3,N
1499622775.9,286046969.6,N
1499622795.7,286046973.9,N
1499622815.6,286046971.3,N
1499622835.4,286046972.8,N
1499622855.2,286046975.3,N
1499622875.1,286046975.6,N
1499622876.0,286046975.6,N
1499622895.8,286046972.5,N
1499622915.6,286046973.0,N
1499622935.5,286046975.5,N
1499622955.3,286046972.5,N
1499622975.1,286046975.1,N
1499622995.8,286046973.0,N
1499623015.7,286046972.9,N
1499623035.5,286046975.1,N
1499623055.3,286046975.3,N
1499623075.2,286046975.3,N
1499623095.9,286046972.6,N
1499623115.7,286046975.2,N
1499623135.6,286046974.3,N
1499623155.4,286046974.8,N
1499623175.2,286046972.7,N
1499623195.1,286046973.4,N
1499623196.0,286046973.4,N
